Change the Weather History Date:

Thursday, June 27, 2013

  Actual Average (KUIN) Record (KUIN)
Temperature  
Mean Temperature 82 °F 75 °F  
Max Temperature 91 °F 85 °F 102 °F (1931)
Min Temperature 73 °F 65 °F 48 °F (1992)
Degree Days  
Heating Degree Days 0 0  
Month to date heating degree days 14  
Since 1 June heating degree days 14  
Since 1 July heating degree days 5580  
Cooling Degree Days 16 10  
Month to date cooling degree days 198  
Year to date cooling degree days 284  
Since 1 June cooling degree days 198  
Growing Degree Days 32 (Base 50)    
Moisture  
Dew Point 68 °F    
Average Humidity 65    
Maximum Humidity 82    
Minimum Humidity 40    
Precipitation  
Precipitation 0.00 in 0.13 in 1.29 in (1923)
Month to date precipitation 3.63  
Year to date precipitation 17.72  
Sea Level Pressure  
Sea Level Pressure 29.88 in    
Wind  
Wind Speed 5 mph (West)    
Max Wind Speed 10 mph    
Max Gust Speed 17 mph    
Visibility 10 miles    
Events      
T = Trace of Precipitation, MM = Missing Value Source: NWS Daily Summary

Daily Weather History Graph

Daily Weather History Graph

Search for Another Location

Airport or City:

Trip Planner

Search our weather history database for the weather conditions in past years. The results will help you decide how hot, cold, wet, or windy it might be!

Date:

Astronomy

Jun. 27, 2013 Rise Set
Actual Time 5:37 AM CDT 8:34 PM CDT
Civil Twilight 5:04 AM CDT 9:07 PM CDT
Nautical Twilight 4:23 AM CDT 9:48 PM CDT
Astronomical Twilight 3:36 AM CDT 10:36 PM CDT
Moon 11:33 PM CDT (6/27) 10:37 AM CDT (6/27)
Length of Visible Light 16h 02m
Length of Day
14h 57m
Waning Gibbous, 76% of the Moon is Illuminated
Jun 27
Waning Gibbous
Jun 29
Last Quarter
Jul 8
New
Jul 15
First Quarter
Jul 22
Full

Hourly Weather History & Observations

Time (CDT) Temp. Heat Index Dew Point Humidity Pressure Visibility Wind Dir Wind Speed Gust Speed Precip Events Conditions
12:15 AM 79.7 °F - 73.6 °F 81% 29.83 in 10.0 mi West 3.5 mph - N/A   Clear
12:35 AM 79.7 °F - 73.4 °F 81% 29.83 in 10.0 mi West 4.6 mph - N/A   Clear
1:15 AM 79.0 °F - 73.0 °F 82% 29.84 in 10.0 mi West 4.6 mph - N/A   Clear
1:35 AM 79.2 °F - 72.3 °F 79% 29.84 in 10.0 mi West 6.9 mph - N/A   Clear
1:55 AM 78.4 °F - 72.0 °F 80% 29.84 in 10.0 mi West 5.8 mph - N/A   Clear
2:15 AM 78.1 °F - 71.6 °F 80% 29.83 in 10.0 mi West 5.8 mph - N/A   Clear
2:35 AM 77.4 °F - 70.9 °F 80% 29.84 in 10.0 mi West 4.6 mph - N/A   Clear
2:55 AM 77.2 °F - 70.5 °F 80% 29.84 in 10.0 mi WNW 5.8 mph - N/A   Clear
3:15 AM 77.0 °F - 69.8 °F 78% 29.85 in 10.0 mi West 4.6 mph - N/A   Clear
3:35 AM 76.1 °F - 69.4 °F 80% 29.85 in 10.0 mi West 4.6 mph - N/A   Clear
3:55 AM 75.7 °F - 69.1 °F 80% 29.85 in 10.0 mi West 4.6 mph - N/A   Clear
4:15 AM 75.4 °F - 68.9 °F 80% 29.86 in 10.0 mi West 5.8 mph - N/A   Clear
4:35 AM 75.4 °F - 68.4 °F 79% 29.87 in 10.0 mi West 6.9 mph - N/A   Clear
4:55 AM 75.2 °F - 68.2 °F 79% 29.87 in 10.0 mi WNW 6.9 mph - N/A   Clear
5:15 AM 74.5 °F - 68.0 °F 80% 29.88 in 10.0 mi West 4.6 mph - N/A   Clear
5:35 AM 74.3 °F - 67.8 °F 80% 29.88 in 10.0 mi West 4.6 mph - N/A   Clear
5:55 AM 73.8 °F - 67.5 °F 81% 29.88 in 10.0 mi West 4.6 mph - N/A   Clear
6:15 AM 73.8 °F - 67.5 °F 81% 29.89 in 10.0 mi West 4.6 mph - N/A   Clear
6:35 AM 73.9 °F - 67.5 °F 80% 29.89 in 10.0 mi Calm Calm - N/A   Clear
6:55 AM 74.8 °F - 68.0 °F 79% 29.89 in 10.0 mi Calm Calm - N/A   Clear
7:15 AM 75.9 °F - 68.4 °F 77% 29.89 in 10.0 mi West 3.5 mph - N/A   Clear
7:35 AM 77.0 °F - 67.6 °F 73% 29.90 in 10.0 mi WNW 6.9 mph - N/A   Clear
7:55 AM 77.9 °F - 67.8 °F 71% 29.91 in 10.0 mi WNW 4.6 mph - N/A   Clear
8:15 AM 78.8 °F - 68.2 °F 70% 29.91 in 10.0 mi WNW 5.8 mph - N/A   Clear
8:35 AM 79.9 °F - 68.5 °F 68% 29.91 in 10.0 mi WNW 6.9 mph - N/A   Clear
8:55 AM 81.3 °F 84.3 °F 68.7 °F 65% 29.91 in 10.0 mi West 6.9 mph - N/A   Clear
9:15 AM 82.4 °F 85.6 °F 68.7 °F 63% 29.91 in 10.0 mi WNW 4.6 mph - N/A   Clear
9:35 AM 83.5 °F 87.2 °F 69.3 °F 62% 29.91 in 10.0 mi WNW 5.8 mph - N/A   Clear
9:55 AM 84.4 °F 87.6 °F 68.4 °F 58% 29.90 in 10.0 mi West 8.1 mph - N/A   Clear
10:15 AM 85.5 °F 88.5 °F 67.8 °F 55% 29.90 in 10.0 mi West 5.8 mph - N/A   Clear
10:35 AM 86.2 °F 88.8 °F 66.7 °F 52% 29.91 in 10.0 mi WNW 6.9 mph - N/A   Clear
10:55 AM 86.9 °F 89.3 °F 66.4 °F 50% 29.91 in 10.0 mi West 8.1 mph - N/A   Clear
11:15 AM 87.8 °F 90.4 °F 66.4 °F 49% 29.91 in 10.0 mi WNW 10.4 mph - N/A   Clear
11:35 AM 88.0 °F 90.7 °F 66.7 °F 49% 29.91 in 10.0 mi West 9.2 mph - N/A   Clear
11:55 AM 88.7 °F 91.9 °F 67.1 °F 49% 29.91 in 10.0 mi West 8.1 mph - N/A   Clear
12:15 PM 89.1 °F 92.1 °F 66.9 °F 48% 29.90 in 10.0 mi West 6.9 mph - N/A   Clear
12:35 PM 90.0 °F 92.0 °F 65.7 °F 44% 29.90 in 10.0 mi West 8.1 mph - N/A   Clear
12:55 PM 90.5 °F 92.2 °F 64.6 °F 42% 29.91 in 10.0 mi West 8.1 mph - N/A   Clear
1:15 PM 90.9 °F 92.0 °F 63.3 °F 40% 29.91 in 10.0 mi West 10.4 mph - N/A   Clear
1:35 PM 89.6 °F 90.1 °F 62.1 °F 40% 29.92 in 10.0 mi West 9.2 mph - N/A   Clear
1:55 PM 89.1 °F 90.0 °F 63.1 °F 42% 29.92 in 10.0 mi West 8.1 mph - N/A   Clear
2:15 PM 88.5 °F 90.5 °F 65.3 °F 46% 29.92 in 10.0 mi West 6.9 mph - N/A   Clear
2:35 PM 88.3 °F 90.9 °F 66.4 °F 48% 29.92 in 10.0 mi West 4.6 mph - N/A   Clear
2:55 PM 87.8 °F 90.7 °F 67.1 °F 50% 29.92 in 10.0 mi West 6.9 mph - N/A   Clear
3:15 PM 87.8 °F 91.4 °F 68.0 °F 52% 29.92 in 10.0 mi West 8.1 mph - N/A   Clear
3:35 PM 87.8 °F 91.1 °F 67.8 °F 51% 29.91 in 10.0 mi West 9.2 mph - N/A   Clear
3:55 PM 87.4 °F 90.8 °F 67.8 °F 52% 29.91 in 10.0 mi West 6.9 mph 17.3 mph N/A   Clear
4:15 PM 86.9 °F 89.9 °F 67.5 °F 52% 29.90 in 10.0 mi West 10.4 mph 17.3 mph N/A   Clear
4:35 PM 86.2 °F 88.8 °F 66.7 °F 52% 29.88 in 10.0 mi West 5.8 mph - N/A   Clear
4:55 PM 85.3 °F 88.2 °F 67.5 °F 55% 29.87 in 10.0 mi West 4.6 mph - N/A   Clear
5:15 PM 85.1 °F 88.5 °F 68.5 °F 57% 29.86 in 10.0 mi WSW 8.1 mph - N/A   Clear
5:35 PM 85.1 °F 88.5 °F 68.4 °F 57% 29.85 in 10.0 mi West 5.8 mph - N/A   Scattered Clouds
5:55 PM 84.4 °F 87.9 °F 68.7 °F 59% 29.85 in 10.0 mi West 3.5 mph - N/A   Clear
6:15 PM 85.6 °F 89.7 °F 69.4 °F 58% 29.85 in 10.0 mi WSW 5.8 mph - N/A   Clear
6:35 PM 86.0 °F 89.7 °F 68.7 °F 56% 29.84 in 10.0 mi West 5.8 mph - N/A   Clear
6:55 PM 85.6 °F 89.1 °F 68.2 °F 56% 29.83 in 10.0 mi WNW 5.8 mph - N/A   Clear
7:15 PM 85.3 °F 87.9 °F 67.1 °F 54% 29.82 in 10.0 mi WNW 5.8 mph - N/A   Clear
7:35 PM 84.6 °F 87.4 °F 67.5 °F 56% 29.83 in 10.0 mi WNW 5.8 mph - N/A   Clear
7:55 PM 83.5 °F 86.4 °F 67.8 °F 59% 29.83 in 10.0 mi WNW 8.1 mph - N/A   Clear
8:15 PM 82.4 °F 85.6 °F 68.5 °F 63% 29.83 in 10.0 mi WNW 3.5 mph - N/A   Clear
8:35 PM 80.8 °F 83.8 °F 69.1 °F 67% 29.83 in 10.0 mi NW 3.5 mph - N/A   Clear
8:55 PM 79.9 °F - 69.1 °F 69% 29.83 in 10.0 mi Calm Calm - N/A   Clear
9:15 PM 79.7 °F - 69.3 °F 70% 29.83 in 10.0 mi Calm Calm - N/A   Clear
9:35 PM 79.0 °F - 69.1 °F 72% 29.84 in 10.0 mi Calm Calm - N/A   Clear
9:55 PM 78.8 °F - 68.9 °F 72% 29.85 in 10.0 mi WNW 3.5 mph - N/A   Clear
10:15 PM 78.1 °F - 68.9 °F 73% 29.86 in 10.0 mi West 3.5 mph - N/A   Clear
10:35 PM 77.7 °F - 68.9 °F 74% 29.88 in 10.0 mi WNW 4.6 mph - N/A   Clear
10:55 PM 77.4 °F - 68.5 °F 74% 29.89 in 10.0 mi West 3.5 mph - N/A   Clear
11:15 PM 78.4 °F - 67.6 °F 69% 29.89 in 10.0 mi WNW 5.8 mph - N/A   Clear
11:35 PM 77.9 °F - 67.5 °F 70% 29.88 in 10.0 mi WNW 3.5 mph - N/A   Clear
11:55 PM 77.2 °F - 67.5 °F 72% 29.88 in 10.0 mi West 3.5 mph - N/A   Clear